Overview Statistics Trail Chart Weather Telemetry Raw packets
 

This is the latest recevied weather packets stored in our database for station/object 9M2ABD-1. If no packets are shown the sender has not sent any weather packets the latest 10 day(s).

<< 7 8 9 10 11 12 13 >>
Time Temp. Humidity Pressure Rain* Wind** Luminosity Snow
1788351926 33.89° C 56% 1010.6 hPa - - - -
1788350725 33.89° C 56% 1010.4 hPa - - - -
1788349525 33.89° C 55% 1010.1 hPa - - - -
1788348324 33.89° C 54% 1009.6 hPa - - - -
1788347124 34.44° C 53% 1009.3 hPa - - - -
1788345923 34.44° C 52% 1009.2 hPa - - - -
1788344723 34.44° C 50% 1009 hPa - - - -
1788343523 35° C 50% 1008.7 hPa - - - -
1788341125 35° C 48% 1008.8 hPa - - - -
1788339925 35° C 50% 1008.8 hPa - - - -
1788338725 35° C 48% 1008.8 hPa - - - -
1788337525 35° C 48% 1009 hPa - - - -
1788336325 35° C 50% 1009 hPa - - - -
1788335337 34.44° C 46% 1009.3 hPa - - - -
1788335125 34.44° C 46% 1009.3 hPa - - - -
1788333925 34.44° C 46% 1009.7 hPa - - - -
1788332725 34.44° C 48% 1009.9 hPa - - - -
1788331525 34.44° C 48% 1010.2 hPa - - - -
1788330324 34.44° C 54% 1010.7 hPa - - - -
1788329149 33.89° C 55% 1010.7 hPa - - - -
1788329046 33.33° C 57% 1011.2 hPa - - - -
1788327924 33.33° C 57% 1011.2 hPa - - - -
1788326724 33.33° C 60% 1011.8 hPa - - - -
1788325524 33.33° C 65% 1012.3 hPa - - - -
1788324324 32.78° C 65% 1012.7 hPa - - - -

* Rain since midnight (hover to see other rain measurements)
** Current wind speed in m/s (hover to see current wind gust speed)